Location: Ceske Budejovice
(48.9830°N, 14.4670°E)
Time: 17:30:30
(UTC+02:00)

ISS - Visible Passes

Search period start: 19 July 2018 00:00
Search period end: 29 July 2018 00:00
Orbit: 402 x 408 km, 51.6° (Epoch: 19 July)

Date Brightness Start Highest point End Pass type
(mag) Time Alt. Az. Time Alt. Az. Time Alt. Az.
19 Jul -3.0 01:31:49 10° W 01:35:02 52° N 01:38:17 10° ENE visible
19 Jul -3.6 03:08:28 10° WNW 03:11:46 72° NNE 03:15:04 10° E visible
19 Jul -3.6 23:03:12 10° SW 23:06:22 47° SSE 23:09:33 10° ENE visible
20 Jul -3.3 00:39:37 10° W 00:42:51 59° N 00:46:08 10° ENE visible
20 Jul -3.2 02:16:21 10° WNW 02:19:37 58° N 02:22:53 10° E visible
20 Jul -3.6 03:52:54 10° WNW 03:56:07 49° SSW 03:59:18 10° SE visible
20 Jul -3.0 22:11:29 10° SSW 22:14:22 30° SE 22:17:18 10° E visible
20 Jul -3.7 23:47:25 10° WSW 23:50:41 73° NNW 23:53:59 10° ENE visible
21 Jul -3.0 01:24:11 10° WNW 01:27:26 52° N 01:30:39 10° E visible
21 Jul -4.0 03:00:45 10° WNW 03:04:03 74° SSW 03:07:20 10° ESE visible
21 Jul -2.2 04:37:57 10° W 04:40:06 16° SW 04:42:16 10° S visible
21 Jul -4.0 22:55:16 10° WSW 22:58:32 83° SSE 23:01:51 10° ENE visible
22 Jul -3.0 00:31:59 10° W 00:35:12 51° N 00:38:26 10° ENE visible
22 Jul -3.8 02:08:36 10° WNW 02:11:55 79° NNE 02:15:13 10° ESE visible
22 Jul -2.8 03:45:22 10° W 03:48:10 26° SW 03:50:59 10° SSE visible
22 Jul -3.8 22:03:14 10° SW 22:06:27 55° SSE 22:09:41 10° ENE visible
22 Jul -3.1 23:39:44 10° W 23:42:59 55° N 23:46:14 10° ENE visible
23 Jul -3.4 01:16:28 10° WNW 01:19:44 62° NNE 01:20:47 37° ENE visible
23 Jul -1.3 02:53:02 10° WNW 02:53:17 12° W 02:53:17 12° W visible
23 Jul -3.5 22:47:30 10° W 22:50:46 67° NNW 22:54:02 10° ENE visible
24 Jul -3.1 00:24:16 10° WNW 00:27:30 53° N 00:29:04 26° ENE visible
24 Jul -1.6 02:00:49 10° WNW 02:01:39 17° WNW 02:01:39 17° WNW visible
24 Jul -3.8 21:55:17 10° WSW 21:58:34 87° NNW 22:01:52 10° ENE visible
24 Jul -3.0 23:32:02 10° WNW 23:35:15 50° N 23:38:03 13° ENE visible
25 Jul -2.6 01:08:38 10° WNW 01:10:40 35° WNW 01:10:40 35° WNW visible
25 Jul -3.0 22:39:45 10° W 22:42:59 53° N 22:46:14 10° ENE visible
26 Jul -3.6 00:16:27 10° WNW 00:19:43 67° NNE 00:19:52 66° NE visible
26 Jul -3.3 21:47:28 10° W 21:50:43 61° NNW 21:53:59 10° ENE visible
26 Jul -3.2 23:24:14 10° WNW 23:27:28 55° N 23:29:09 25° ENE visible
27 Jul -1.6 01:00:46 10° WNW 01:01:47 18° W 01:01:47 18° W visible
27 Jul -3.0 22:31:59 10° WNW 22:35:11 51° N 22:38:25 10° E visible
28 Jul -3.3 00:08:32 10° WNW 00:11:08 52° WNW 00:11:08 52° WNW visible
28 Jul -3.0 21:39:40 10° W 21:42:53 51° N 21:46:07 10° ENE visible
28 Jul -3.7 23:16:19 10° WNW 23:19:36 74° NNE 23:20:30 44° E visible
